Flag for Germany Weather past 2 weeks in Gütersloh, North Rhine-Westphalia, Germany

Now
50 °F

Rain. Overcast.


Feels Like: 46 °F
Forecast: 39 / 45 °F
Wind: 8 mph from Southwest

Location: Bad Lippspringe

Current Time: Mar 29, 2015 at 6:38:31 PM

Latest Report: Mar 29, 2015 at 6:00 PM


Visibility: 2 mi

Pressure: 29.29 "Hg

Humidity: 92%

Dew point: 47 °F

Location of GüterslohLocation

Historic Weather in Gütersloh — Graph

°F

Gütersloh temperature yesterday

Maximum temperature yesterday: 53 °F (at 3:00 PM)
Minimum temperature yesterday: 35 °F (at 7:00 AM)
Average temperature yesterday: 45 °F

Past Weeks' High & Low Weather Summary

 TemperatureHumidityPressure
High63 °F (Mar 25, 3:00 PM)100% (Mar 19, 8:00 AM)30.40 "Hg (Mar 19, 8:00 AM)
Low27 °F (Mar 23, 5:00 AM)42% (Mar 17, 3:00 PM)29.32 "Hg (Mar 29, 5:00 PM)
Average43 °F80%30.09 "Hg
* Reported Mar 14 4:00 PM — Mar 29 5:00 PM, Gütersloh, Weather by CustomWeather, © 2015

Note: Actual official high and low records may vary slightly from our data, if they occured in-between our weather recording intervals... More about our weather records

Advertising

Gütersloh weather history for previous 24 hours

 ConditionsComfort  
Time TempWeatherWind HumidityBarometerVisibility
5:00 PM
Sun, Mar 29
50 °FLight rain. Overcast.7 mph88%29.32 "Hg8 mi
4:00 PM49 °FLight rain. Overcast.6 mph90%29.38 "Hg4 mi
3:00 PM48 °FLight rain. Overcast.7 mph90%29.44 "Hg5 mi
2:00 PM48 °FLight rain. Overcast.7 mph92%29.50 "Hg4 mi
1:00 PM49 °FLight rain. Overcast.8 mph87%29.54 "Hg7 mi
12:00 PM48 °FLight freezing rain. Overcast.7 mph89%29.58 "Hg11 mi
11:00 AM48 °FLight freezing rain. Overcast.9 mph88%29.61 "Hg4 mi
10:00 AM49 °FOvercast.9 mph77%29.62 "Hg17 mi
9:00 AM49 °FOvercast.7 mph82%29.64 "Hg17 mi
8:00 AM48 °FOvercast.8 mph86%29.65 "Hg19 mi
7:00 AM49 °FDrizzle. Overcast.10 mph83%29.66 "Hg17 mi
6:00 AM51 °FOvercast.9 mph77%29.66 "Hg43 mi
5:00 AM51 °FOvercast.10 mph77%29.67 "Hg43 mi
4:00 AM51 °FDrizzle. Overcast.6 mph89%29.67 "Hg34 mi
3:00 AM50 °FOvercast.7 mph90%29.72 "Hg43 mi
1:00 AM50 °FDrizzle. Overcast.7 mph92%29.74 "Hg11 mi
12:00 AM51 °FDrizzle. Overcast.7 mph87%29.77 "Hg12 mi
11:00 PM
Sat, Mar 28
50 °FDrizzle. Overcast.6 mph83%29.78 "Hg31 mi
10:00 PM49 °FOvercast.6 mph83%29.81 "Hg40 mi
9:00 PM48 °FOvercast.5 mph87%29.86 "Hg22 mi
8:00 PM47 °FDrizzle. Overcast.5 mph93%29.89 "Hg22 mi
7:00 PM47 °FDrizzle. Overcast.5 mph82%29.89 "Hg8 mi
6:00 PM48 °FDrizzle. Overcast.5 mph78%29.91 "Hg6 mi
Weather by CustomWeather, © 2015

See weather overviewHow to use our weather pages